TimeAEST,TemperatureF,Dew PointF,Humidity,Sea Level PressureIn,VisibilityMPH,Wind Direction,Wind SpeedMPH,Gust SpeedMPH,PrecipitationIn,Events,Conditions,WindDirDegrees,DateUTC
12:00 AM,79,72,74,29.85,,South,5.8,,,,Overcast,180,2013-03-20 14:00:00
12:00 AM,78.8,71.6,78,29.83,6.2,South,5.8,-,N/A,,Mostly Cloudy,180,2013-03-20 14:00:00
12:30 AM,78.8,71.6,78,29.83,6.2,South,9.2,-,N/A,,Mostly Cloudy,180,2013-03-20 14:30:00
1:00 AM,78,72,75,29.83,,South,11.5,,,,,180,2013-03-20 15:00:00
1:00 AM,77.0,71.6,83,29.83,5.6,South,11.5,-,N/A,,Mostly Cloudy,180,2013-03-20 15:00:00
1:30 AM,75.2,73.4,94,29.80,5.6,SSE,6.9,-,N/A,Rain,Light Rain Showers,150,2013-03-20 15:30:00
2:00 AM,75.2,73.4,94,29.77,6.2,SSE,6.9,-,N/A,,Scattered Clouds,150,2013-03-20 16:00:00
2:30 AM,75.2,73.4,94,29.77,6.2,SSE,9.2,-,N/A,,Scattered Clouds,160,2013-03-20 16:30:00
3:00 AM,76,72,85,29.79,,South,5.8,,,,Overcast,170,2013-03-20 17:00:00
3:00 AM,75.2,71.6,89,29.77,6.2,South,5.8,-,N/A,,Mostly Cloudy,170,2013-03-20 17:00:00
3:30 AM,75.2,73.4,94,29.77,6.2,West,5.8,-,N/A,,Mostly Cloudy,280,2013-03-20 17:30:00
4:00 AM,76,74,91,29.79,,Calm,Calm,,,,,,2013-03-20 18:00:00
4:00 AM,75.2,73.4,94,29.77,-9999.0,Calm,Calm,-,N/A,,Overcast,0,2013-03-20 18:00:00
4:30 AM,75.2,73.4,94,29.77,6.2,South,3.5,-,N/A,,Scattered Clouds,170,2013-03-20 18:30:00
5:00 AM,75.2,73.4,94,29.77,6.2,SSE,1.2,-,N/A,,Mostly Cloudy,160,2013-03-20 19:00:00
5:30 AM,75.2,73.4,94,29.80,6.2,Calm,Calm,-,N/A,,Scattered Clouds,0,2013-03-20 19:30:00
6:00 AM,76,74,90,29.82,7,SSE,5.8,,,,Overcast,160,2013-03-20 20:00:00
6:00 AM,75.2,73.4,94,29.80,6.2,SSE,5.8,-,N/A,,Mostly Cloudy,160,2013-03-20 20:00:00
6:30 AM,77.0,73.4,89,29.83,6.2,SSE,8.1,-,N/A,,Mostly Cloudy,160,2013-03-20 20:30:00
7:00 AM,76,74,91,29.84,,SSE,9.2,,,,,160,2013-03-20 21:00:00
7:00 AM,77.0,73.4,89,29.83,6.2,SSE,9.2,-,N/A,,Mostly Cloudy,160,2013-03-20 21:00:00
7:30 AM,77.0,73.4,89,29.83,6.2,SSE,8.1,-,N/A,,Mostly Cloudy,150,2013-03-20 21:30:00
8:00 AM,77.0,73.4,89,29.86,6.2,SSE,6.9,-,N/A,,Mostly Cloudy,150,2013-03-20 22:00:00
8:30 AM,77.0,73.4,89,29.86,6.2,SSE,8.1,-,N/A,,Mostly Cloudy,150,2013-03-20 22:30:00
9:00 AM,78.8,75.2,89,29.86,5.6,SSE,6.9,-,N/A,,Mostly Cloudy,160,2013-03-20 23:00:00
9:30 AM,80.6,75.2,84,29.86,6.2,SSE,3.5,-,N/A,,Mostly Cloudy,150,2013-03-20 23:30:00
10:00 AM,81,74,74,29.88,,Calm,Calm,,,,,,2013-03-21 00:00:00
10:00 AM,80.6,73.4,79,29.86,6.2,Calm,Calm,-,N/A,,Mostly Cloudy,0,2013-03-21 00:00:00
10:30 AM,84.2,75.2,74,29.86,6.2,West,3.5,-,N/A,,Mostly Cloudy,280,2013-03-21 00:30:00
11:00 AM,82.4,75.2,79,29.86,6.2,East,4.6,-,N/A,,Mostly Cloudy,100,2013-03-21 01:00:00
11:30 AM,84.2,73.4,70,29.86,6.2,SE,8.1,-,N/A,,Mostly Cloudy,130,2013-03-21 01:30:00
12:00 PM,85,73,61,29.86,16,ENE,5.8,,,,Partly Cloudy,60,2013-03-21 02:00:00
12:00 PM,86.0,73.4,66,29.86,6.2,ENE,5.8,-,N/A,,Mostly Cloudy,60,2013-03-21 02:00:00
12:30 PM,86.0,75.2,70,29.83,6.2,ENE,8.1,-,N/A,,Mostly Cloudy,60,2013-03-21 02:30:00
1:00 PM,85,74,63,29.84,,ENE,9.2,,,,,60,2013-03-21 03:00:00
1:00 PM,86.0,73.4,66,29.83,6.2,ENE,9.2,-,N/A,,Scattered Clouds,60,2013-03-21 03:00:00
1:30 PM,86.0,75.2,70,29.80,6.2,ENE,10.4,-,N/A,,Scattered Clouds,60,2013-03-21 03:30:00
2:00 PM,86.0,75.2,70,29.80,6.2,ENE,9.2,-,N/A,,Scattered Clouds,60,2013-03-21 04:00:00
2:30 PM,86.0,73.4,66,29.80,6.2,ENE,10.4,-,N/A,,Scattered Clouds,60,2013-03-21 04:30:00
3:00 PM,87,75,59,29.80,19,ENE,11.5,,,,Partly Cloudy,60,2013-03-21 05:00:00
3:00 PM,87.8,75.2,66,29.80,6.2,ENE,11.5,-,N/A,,Partly Cloudy,60,2013-03-21 05:00:00
3:30 PM,86.0,73.4,66,29.80,6.2,ENE,11.5,-,N/A,,Scattered Clouds,60,2013-03-21 05:30:00
4:00 PM,87,75,59,29.80,,ENE,10.4,,,,,60,2013-03-21 06:00:00
4:00 PM,86.0,75.2,70,29.77,6.2,ENE,10.4,-,N/A,,Partly Cloudy,60,2013-03-21 06:00:00
4:30 PM,86.0,73.4,66,29.80,6.2,East,12.7,-,N/A,,Scattered Clouds,80,2013-03-21 06:30:00
5:00 PM,86.0,73.4,66,29.80,6.2,East,11.5,-,N/A,,Mostly Cloudy,90,2013-03-21 07:00:00
5:30 PM,84.2,73.4,70,29.80,6.2,SE,13.8,-,N/A,,Mostly Cloudy,130,2013-03-21 07:30:00
6:00 PM,83,71,60,29.82,,ESE,10.4,,,,Overcast,120,2013-03-21 08:00:00
6:00 PM,82.4,71.6,70,29.80,6.2,ESE,10.4,-,N/A,,Mostly Cloudy,120,2013-03-21 08:00:00
6:30 PM,80.6,73.4,79,29.83,6.2,SSE,8.1,-,N/A,,Light Drizzle,160,2013-03-21 08:30:00
7:00 PM,81,74,72,29.85,,SSE,6.9,,,,,160,2013-03-21 09:00:00
7:00 PM,80.6,73.4,79,29.83,6.2,SSE,6.9,-,N/A,,Mostly Cloudy,160,2013-03-21 09:00:00
7:30 PM,80.6,73.4,79,29.86,6.2,South,8.1,-,N/A,,Mostly Cloudy,170,2013-03-21 09:30:00
8:00 PM,78.8,75.2,89,29.86,6.2,South,8.1,-,N/A,,Mostly Cloudy,170,2013-03-21 10:00:00
8:30 PM,78.8,75.2,89,29.89,3.7,South,6.9,-,N/A,Rain,Light Rain Showers,170,2013-03-21 10:30:00
9:00 PM,77,76,96,29.91,4,SSE,8.1,,,Rain,Light Rain Showers,160,2013-03-21 11:00:00
9:00 PM,77.0,77.0,100,29.89,3.7,SSE,8.1,-,N/A,Rain,Light Rain Showers,160,2013-03-21 11:00:00
9:25 PM,77.0,75.2,94,29.89,5.0,SSE,6.9,-,N/A,,Mostly Cloudy,160,2013-03-21 11:25:00
9:30 PM,77.0,75.2,94,29.89,6.2,SSE,6.9,-,N/A,,Mostly Cloudy,160,2013-03-21 11:30:00
10:00 PM,78,75,88,29.91,,South,9.2,,,,,170,2013-03-21 12:00:00
10:00 PM,78.8,75.2,89,29.89,6.2,South,9.2,-,N/A,,Scattered Clouds,170,2013-03-21 12:00:00
10:30 PM,78.8,75.2,89,29.89,6.2,South,8.1,-,N/A,,Partly Cloudy,180,2013-03-21 12:30:00
11:00 PM,78.8,73.4,83,29.89,6.2,South,8.1,-,N/A,,Partly Cloudy,190,2013-03-21 13:00:00
11:30 PM,78.8,73.4,83,29.89,6.2,SSE,6.9,-,N/A,,Partly Cloudy,150,2013-03-21 13:30:00